CW4185 Weather Reports


time (UTC)temp
C
wind
direction
speed
KPH
gust
KPH
rain 1hr
cm
rain 24hr
cm
rain mn
cm
humidity
%
barometer
mb
20260507065147 25 172 9.7 14.5 0.00 0.00 0.00 95 1011.2
20260507064647 25 209 9.7 16.1 0.00 0.00 0.00 94 1011.2
20260507064147 25 182 8.0 11.3 0.00 0.00 0.00 95 1011.2
20260507063647 25 180 8.0 16.1 0.00 0.00 0.00 95 1011.2
20260507063147 25 180 9.7 12.9 0.00 0.00 0.00 95 1011.2
20260507062648 25 198 6.4 17.7 0.00 0.00 0.00 95 1011.2
20260507062147 25 180 11.3 17.7 0.00 0.00 0.00 95 1010.8
20260507061646 25 185 11.3 17.7 0.00 0.00 0.00 95 1011.2
20260507061148 25 166 14.5 16.1 0.00 0.00 0.00 95 1011.2
20260507060646 25 174 17.7 20.9 0.00 0.00 0.00 95 1011.2
20260507060147 25 189 8.0 19.3 0.00 0.00 0.00 95 1011.2
20260507055646 25 188 11.3 16.1 0.00 0.00 0.00 95 1011.2
20260507055146 25 182 11.3 16.1 0.00 0.00 0.00 95 1011.5
20260507054648 25 192 14.5 22.5 0.00 0.00 0.00 95 1011.2
20260507054147 25 176 12.9 20.9 0.00 0.00 0.00 94 1011.2
20260507053647 25 172 8.0 14.5 0.00 0.00 0.00 94 1011.2
20260507053147 25 207 9.7 11.3 0.00 0.00 0.00 94 1011.2
20260507052647 25 219 12.9 14.5 0.00 0.00 0.00 94 1011.2
20260507052147 25 169 14.5 19.3 0.00 0.00 0.00 94 1011.2
20260507051647 25 177 11.3 22.5 0.00 0.00 0.00 94 1011.2
20260507051147 25 173 9.7 20.9 0.00 0.00 0.00 94 1011.2
20260507050646 25 170 16.1 22.5 0.00 0.00 0.00 95 1011.2
20260507050147 25 165 11.3 22.5 0.00 0.00 0.00 95 1011.2
20260507045646 25 174 11.3 16.1 0.00 0.00 0.05 95 1011.2
20260507045146 25 178 9.7 17.7 0.00 0.00 0.05 94 1011.2
20260507044646 25 179 11.3 20.9 0.00 0.00 0.05 94 1011.2
20260507044146 25 178 12.9 20.9 0.00 0.00 0.05 94 1011.2
20260507043646 25 183 9.7 22.5 0.00 0.00 0.05 94 1011.2
20260507043147 25 173 12.9 20.9 0.00 0.00 0.05 93 1011.2
20260507042646 25 174 12.9 24.1 0.00 0.00 0.05 93 1011.2
20260507042146 25 170 16.1 22.5 0.00 0.00 0.05 94 1011.2
20260507041646 25 157 22.5 27.4 0.00 0.00 0.05 93 1011.2
20260507041146 25 167 14.5 22.5 0.00 0.00 0.05 93 1011.2
20260507040647 25 166 17.7 25.7 0.00 0.00 0.05 93 1011.2
20260507040146 25 162 17.7 27.4 0.00 0.00 0.05 93 1011.2
20260507035646 25 180 16.1 20.9 0.00 0.00 0.05 93 1011.2
20260507035147 25 163 17.7 22.5 0.00 0.00 0.05 92 1011.2
20260507034646 25 180 12.9 20.9 0.00 0.00 0.05 92 1011.2
20260507034147 25 158 11.3 17.7 0.00 0.00 0.05 93 1011.2
20260507033647 25 175 9.7 19.3 0.00 0.00 0.05 92 1011.2
20260507033147 25 164 16.1 20.9 0.00 0.00 0.05 92 1011.2
20260507032647 25 173 14.5 20.9 0.00 0.00 0.05 92 1011.2
20260507032147 26 176 12.9 24.1 0.00 0.00 0.05 92 1011.2
20260507031648 26 167 19.3 25.7 0.00 0.00 0.05 92 1011.5
20260507031148 26 169 12.9 29.0 0.00 0.00 0.05 92 1011.2
20260507030647 26 152 16.1 24.1 0.00 0.00 0.05 92 1011.2
20260507030148 26 163 8.0 24.1 0.00 0.00 0.05 92 1011.2
20260507025647 26 150 14.5 27.4 0.00 0.00 0.05 92 1011.2
20260507025147 26 160 14.5 16.1 0.00 0.00 0.05 92 1011.2
20260507024647 26 150 9.7 22.5 0.00 0.00 0.05 92 1011.2
20260507024147 26 169 17.7 19.3 0.00 0.00 0.05 91 1011.2
20260507023646 26 160 11.3 19.3 0.00 0.00 0.05 91 1011.2
20260507023146 26 172 8.0 19.3 0.00 0.00 0.05 91 1011.5
20260507022646 26 175 11.3 14.5 0.00 0.00 0.05 91 1011.5
20260507022148 26 149 17.7 19.3 0.00 0.00 0.05 91 1011.2
20260507021646 26 184 11.3 17.7 0.00 0.00 0.05 91 1011.2
20260507021147 26 162 12.9 16.1 0.00 0.00 0.05 91 1011.2
20260507020647 26 205 8.0 19.3 0.00 0.00 0.05 91 1011.2
20260507020149 26 180 16.1 22.5 0.00 0.00 0.05 91 1011.2
20260507015646 26 187 11.3 14.5 0.00 0.00 0.05 91 1010.8
20260507015146 26 155 14.5 19.3 0.00 0.00 0.05 91 1010.8
20260507014647 26 166 12.9 19.3 0.00 0.00 0.05 91 1010.8
20260507014146 26 172 4.8 17.7 0.00 0.00 0.05 91 1010.5
20260507013646 26 168 12.9 19.3 0.00 0.00 0.05 92 1010.8
20260507013146 26 170 11.3 20.9 0.00 0.00 0.05 92 1010.8
20260507012647 26 166 11.3 16.1 0.00 0.00 0.05 92 1010.8
20260507012150 26 157 11.3 17.7 0.00 0.00 0.05 92 1010.8
20260507011646 26 160 12.9 16.1 0.00 0.00 0.05 92 1010.8
20260507011147 26 162 9.7 14.5 0.00 0.00 0.05 92 1010.5
20260507010646 26 159 17.7 19.3 0.00 0.00 0.05 92 1010.8
20260507010147 26 169 9.7 12.9 0.00 0.00 0.05 93 1010.8
20260507005647 26 166 17.7 20.9 0.00 0.00 0.05 92 1010.5
20260507005146 26 180 8.0 16.1 0.00 0.00 0.05 92 1010.5
20260507004648 26 160 14.5 20.9 0.00 0.00 0.05 92 1010.5
20260507004147 26 157 14.5 19.3 0.00 0.00 0.05 92 1010.5
20260507003647 26 156 14.5 19.3 0.00 0.00 0.05 92 1010.5
20260507003147 26 167 16.1 17.7 0.00 0.00 0.05 92 1010.5
20260507002646 26 162 8.0 24.1 0.00 0.00 0.05 91 1010.5
20260507002147 26 162 9.7 16.1 0.00 0.00 0.05 91 1010.5
20260507001647 26 159 9.7 19.3 0.00 0.00 0.05 91 1010.2
20260507001147 26 161 12.9 17.7 0.00 0.00 0.05 91 1010.5
20260507000647 26 165 11.3 24.1 0.00 0.00 0.05 91 1010.5
20260507000146 26 167 14.5 25.7 0.00 0.00 0.05 90 1010.2
20260506235646 26 145 11.3 24.1 0.00 0.00 0.05 90 1010.2
20260506235147 26 168 14.5 20.9 0.00 0.00 0.05 90 1010.2
20260506234647 26 166 17.7 24.1 0.00 0.00 0.05 90 1010.2
20260506234147 26 160 11.3 19.3 0.00 0.00 0.05 89 1010.2
20260506233646 26 169 12.9 17.7 0.00 0.00 0.05 89 1010.2
20260506233147 27 193 11.3 19.3 0.00 0.00 0.05 89 1010.2
20260506232647 27 169 14.5 25.7 0.00 0.00 0.05 88 1010.2
20260506232147 27 151 17.7 20.9 0.00 0.00 0.05 88 1010.2
20260506231646 27 167 16.1 24.1 0.00 0.00 0.05 87 1009.8
20260506231147 27 164 12.9 30.6 0.00 0.00 0.05 87 1009.8
20260506230646 27 170 24.1 29.0 0.00 0.00 0.05 87 1009.8
20260506230146 27 164 17.7 27.4 0.00 0.00 0.05 87 1010.2
20260506225646 27 154 12.9 16.1 0.00 0.00 0.05 87 1010.2
20260506225147 27 167 12.9 25.7 0.00 0.00 0.05 87 1010.2
20260506224646 27 190 17.7 20.9 0.00 0.00 0.05 86 1010.2
20260506224146 27 166 20.9 30.6 0.00 0.00 0.05 86 1010.2
20260506223646 27 170 20.9 22.5 0.00 0.00 0.05 85 1010.2
20260506223147 27 141 16.1 24.1 0.00 0.00 0.05 85 1010.2
20260506222647 27 155 14.5 20.9 0.00 0.00 0.05 84 1010.2
20260506222146 28 175 14.5 20.9 0.00 0.00 0.05 84 1010.5
20260506221651 28 182 19.3 29.0 0.00 0.00 0.05 82 1010.5
20260506221146 28 162 11.3 25.7 0.00 0.00 0.05 83 1010.5
20260506220647 28 166 19.3 29.0 0.00 0.00 0.05 82 1010.5
20260506220147 28 178 16.1 27.4 0.00 0.00 0.05 82 1010.5
20260506215646 28 169 22.5 32.2 0.00 0.00 0.05 82 1010.8
20260506215146 28 172 16.1 24.1 0.00 0.00 0.05 80 1010.5
20260506214646 28 170 14.5 22.5 0.00 0.00 0.05 81 1010.5
20260506214147 28 164 22.5 29.0 0.00 0.00 0.05 80 1010.5
20260506213646 28 179 20.9 25.7 0.00 0.00 0.05 81 1010.5
20260506213149 28 156 17.7 29.0 0.00 0.00 0.05 80 1010.8
20260506212648 28 175 11.3 22.5 0.00 0.00 0.05 80 1010.8
20260506212147 28 171 19.3 27.4 0.00 0.00 0.05 79 1010.8
20260506211646 28 137 22.5 27.4 0.00 0.00 0.05 80 1010.8
20260506211147 28 170 22.5 25.7 0.00 0.00 0.05 79 1010.8
20260506210646 28 163 16.1 22.5 0.00 0.00 0.05 80 1010.8
20260506210147 28 159 14.5 25.7 0.00 0.00 0.05 79 1010.8
20260506205647 28 166 27.4 33.8 0.00 0.00 0.05 78 1010.8
20260506205146 29 180 17.7 19.3 0.00 0.00 0.05 79 1010.5
20260506204647 28 186 16.1 25.7 0.00 0.00 0.05 80 1010.8
20260506204147 28 173 17.7 22.5 0.00 0.00 0.05 80 1011.2
20260506203647 28 159 16.1 29.0 0.00 0.00 0.05 81 1011.2
20260506203147 28 144 11.3 29.0 0.00 0.00 0.05 81 1011.2
20260506202647 29 168 17.7 24.1 0.00 0.00 0.05 79 1011.2
20260506202146 28 167 12.9 25.7 0.00 0.00 0.05 79 1011.2
20260506201647 28 168 19.3 32.2 0.00 0.00 0.05 78 1011.5
20260506201147 28 151 17.7 33.8 0.00 0.00 0.05 78 1011.9
20260506200157 28 164 16.1 25.7 0.00 0.00 0.05 79 1011.5
20260506195648 28 151 14.5 22.5 0.00 0.00 0.05 80 1011.9
20260506195147 28 151 14.5 19.3 0.00 0.00 0.05 80 1011.9
20260506194647 28 168 22.5 24.1 0.00 0.00 0.05 79 1012.2
20260506194147 28 180 12.9 19.3 0.00 0.00 0.05 80 1011.9
20260506193647 28 181 11.3 22.5 0.00 0.00 0.05 81 1012.2
20260506193147 28 166 19.3 27.4 0.00 0.00 0.05 80 1012.2
20260506192648 28 175 14.5 19.3 0.00 0.00 0.05 81 1012.2
20260506192146 28 171 12.9 22.5 0.00 0.00 0.05 80 1012.5
20260506191647 28 163 16.1 24.1 0.00 0.00 0.05 80 1012.5
20260506191147 28 165 17.7 24.1 0.00 0.00 0.05 80 1012.2
20260506190647 28 157 9.7 16.1 0.00 0.00 0.05 80 1012.5
20260506190148 28 161 14.5 20.9 0.00 0.00 0.05 79 1012.9
20260506185646 28 164 12.9 20.9 0.00 0.00 0.05 79 1012.5
20260506185147 28 137 16.1 20.9 0.00 0.00 0.05 79 1012.5
20260506184647 28 172 14.5 19.3 0.00 0.00 0.05 81 1012.9
20260506183724 28 177 8.0 19.3 0.00 0.00 0.05 81 1013.2
20260506183147 28 177 14.5 20.9 0.00 0.00 0.05 81 1013.2
20260506182647 28 163 16.1 24.1 0.00 0.00 0.05 80 1012.9
20260506182147 28 185 14.5 22.5 0.00 0.00 0.05 80 1013.2
20260506181647 28 157 14.5 19.3 0.00 0.00 0.05 80 1012.9
20260506181147 28 154 11.3 27.4 0.00 0.00 0.05 80 1012.9
20260506180646 28 180 11.3 22.5 0.00 0.00 0.05 80 1012.9
20260506180146 28 167 14.5 27.4 0.00 0.00 0.05 80 1012.9
20260506175646 28 201 16.1 20.9 0.00 0.00 0.05 81 1013.2
20260506175147 28 185 17.7 25.7 0.00 0.00 0.05 83 1013.2
20260506174646 28 161 19.3 25.7 0.00 0.00 0.05 82 1013.2
20260506174147 27 201 9.7 19.3 0.00 0.00 0.05 84 1013.2
20260506173648 27 170 11.3 17.7 0.00 0.00 0.05 85 1013.2
20260506173147 27 160 11.3 19.3 0.00 0.00 0.05 86 1013.2
20260506172647 27 170 14.5 16.1 0.00 0.00 0.05 87 1013.5
20260506172147 27 184 11.3 14.5 0.00 0.00 0.05 88 1013.5
20260506171647 26 173 16.1 17.7 0.00 0.00 0.05 88 1013.5
20260506171147 26 163 17.7 17.7 0.00 0.00 0.05 90 1013.5
20260506170646 26 157 16.1 19.3 0.05 0.00 0.05 91 1013.5
20260506170147 26 172 6.4 17.7 0.05 0.00 0.05 91 1013.5
20260506165650 26 166 19.3 22.5 0.00 0.00 0.03 89 1013.9
20260506165147 26 168 14.5 24.1 0.00 0.00 0.03 88 1013.5
20260506164647 27 161 17.7 20.9 0.00 0.00 0.03 87 1013.5
20260506164147 27 164 8.0 22.5 0.00 0.00 0.03 88 1013.5
20260506163648 26 170 9.7 24.1 0.00 0.00 0.03 88 1013.5
20260506163146 27 180 11.3 20.9 0.00 0.00 0.03 88 1013.5
20260506162647 26 174 16.1 20.9 0.00 0.00 0.03 88 1013.2
20260506162146 27 170 14.5 22.5 0.00 0.00 0.03 87 1013.2
20260506161647 27 152 16.1 17.7 0.00 0.00 0.03 87 1012.9
20260506161146 27 160 9.7 12.9 0.00 0.00 0.03 88 1013.2
20260506160648 26 183 12.9 19.3 0.00 0.00 0.03 89 1013.2
20260506160147 26 197 8.0 25.7 0.00 0.00 0.03 88 1013.2
20260506155647 27 167 14.5 19.3 0.00 0.00 0.03 88 1012.9
20260506155147 27 186 12.9 16.1 0.00 0.00 0.03 89 1012.9
20260506154647 26 170 12.9 20.9 0.00 0.00 0.03 89 1013.2
20260506154147 26 163 14.5 20.9 0.00 0.00 0.03 89 1013.2
20260506153647 26 169 12.9 17.7 0.00 0.00 0.03 90 1012.9
20260506153147 26 159 17.7 20.9 0.00 0.00 0.03 90 1012.9
20260506152646 26 176 17.7 24.1 0.00 0.00 0.03 91 1012.9
20260506152146 26 184 14.5 20.9 0.00 0.00 0.03 91 1012.9
20260506151647 26 163 9.7 16.1 0.00 0.00 0.03 91 1012.9
20260506151147 26 172 11.3 17.7 0.00 0.00 0.03 91 1012.9
20260506150646 26 164 14.5 17.7 0.00 0.00 0.03 91 1012.9
20260506150147 26 173 12.9 17.7 0.00 0.00 0.03 91 1012.9
20260506145647 26 153 12.9 24.1 0.00 0.00 0.03 92 1012.9
20260506145147 26 167 12.9 17.7 0.00 0.00 0.03 92 1012.9
20260506144646 25 167 16.1 19.3 0.00 0.00 0.03 93 1012.9
20260506144147 25 175 9.7 20.9 0.00 0.00 0.03 93 1012.9
20260506143648 25 163 17.7 20.9 0.00 0.00 0.03 93 1012.9
20260506143146 25 164 16.1 20.9 0.00 0.00 0.03 93 1012.9
20260506142647 25 147 11.3 19.3 0.00 0.00 0.03 94 1012.5
20260506142147 25 169 8.0 20.9 0.00 0.00 0.03 94 1012.2
20260506141647 25 156 9.7 17.7 0.00 0.00 0.03 94 1012.5
20260506141154 25 178 14.5 17.7 0.00 0.00 0.03 95 1012.5
20260506140647 25 168 11.3 17.7 0.00 0.00 0.03 95 1012.5
20260506140149 25 170 9.7 19.3 0.00 0.00 0.03 95 1012.5
20260506135647 25 162 14.5 20.9 0.00 0.00 0.03 95 1012.2
20260506135147 25 153 12.9 12.9 0.00 0.00 0.03 96 1012.5
20260506134647 25 151 8.0 14.5 0.00 0.00 0.03 96 1012.5
20260506134147 25 178 12.9 17.7 0.00 0.00 0.03 96 1012.5
20260506133647 25 142 9.7 19.3 0.00 0.00 0.03 97 1012.5
20260506133146 24 161 8.0 12.9 0.00 0.00 0.03 97 1012.5
20260506132646 24 146 6.4 14.5 0.00 0.00 0.03 97 1012.5
20260506132148 24 170 9.7 16.1 0.00 0.00 0.03 98 1012.5
20260506131646 24 159 8.0 12.9 0.00 0.00 0.03 98 1012.2
20260506131146 24 164 9.7 12.9 0.00 0.00 0.03 98 1012.5
20260506130647 23 154 9.7 14.5 0.00 0.00 0.03 98 1012.2
20260506130147 23 133 8.0 12.9 0.00 0.00 0.03 99 1012.2
20260506125647 23 130 11.3 11.3 0.00 0.00 0.03 99 1012.5
20260506125147 23 158 4.8 11.3 0.00 0.00 0.03 99 1012.5
20260506124647 23 147 3.2 9.7 0.00 0.00 0.03 99 1012.2
20260506124147 23 165 8.0 11.3 0.00 0.00 0.03 99 1012.2
20260506123647 23 161 8.0 9.7 0.00 0.00 0.03 99 1012.2
20260506123146 23 124 4.8 9.7 0.00 0.00 0.03 99 1012.2
20260506122647 23 159 4.8 12.9 0.00 0.00 0.03 99 1011.9
20260506122147 23 133 11.3 11.3 0.00 0.00 0.03 99 1011.9
20260506121647 23 142 4.8 11.3 0.00 0.00 0.03 99 1012.2
20260506121147 23 133 4.8 9.7 0.00 0.00 0.03 99 1011.9
20260506120647 23 137 3.2 11.3 0.00 0.00 0.03 99 1011.9
20260506120147 23 163 6.4 9.7 0.00 0.00 0.03 99 1011.9
20260506115646 23 134 11.3 11.3 0.00 0.00 0.03 99 1011.9
20260506115146 23 133 4.8 9.7 0.00 0.00 0.03 99 1011.5
20260506114646 23 154 6.4 11.3 0.00 0.00 0.03 99 1011.9
20260506114147 23 133 4.8 9.7 0.00 0.00 0.03 99 1011.5
20260506113646 23 171 9.7 9.7 0.00 0.00 0.03 99 1011.5
20260506113147 23 157 6.4 8.0 0.00 0.00 0.03 99 1011.5
20260506112646 23 135 4.8 9.7 0.00 0.00 0.03 99 1011.9
20260506112147 23 147 8.0 11.3 0.00 0.00 0.03 99 1011.9
20260506111647 23 168 11.3 11.3 0.00 0.00 0.03 99 1011.5
20260506111149 23 160 12.9 17.7 0.05 0.00 0.03 99 1011.5
20260506110648 23 164 9.7 11.3 0.05 0.00 0.03 99 1011.5
20260506110147 23 164 11.3 12.9 0.05 0.00 0.03 99 1011.5
20260506105649 23 150 4.8 11.3 0.05 0.00 0.00 98 1011.2
20260506105147 23 167 6.4 12.9 0.05 0.00 0.00 98 1011.2
20260506104648 23 142 8.0 8.0 0.00 0.00 0.00 98 1011.2
20260506104146 23 165 11.3 11.3 0.00 0.00 0.00 97 1011.2
20260506103646 23 138 6.4 11.3 0.00 0.00 0.00 97 1011.2
20260506103146 23 168 8.0 12.9 0.00 0.00 0.00 96 1011.2
20260506102648 23 162 4.8 8.0 0.00 0.00 0.00 95 1011.2
20260506102149 23 154 11.3 14.5 0.00 0.00 0.00 94 1011.2
20260506101647 23 162 4.8 14.5 0.00 0.00 0.00 94 1010.8
20260506101150 23 164 8.0 12.9 0.00 0.00 0.00 94 1011.2
20260506100647 23 145 6.4 14.5 0.00 0.00 0.00 94 1011.2
20260506100146 23 180 9.7 14.5 0.00 0.00 0.00 94 1011.2
20260506095650 23 146 4.8 12.9 0.00 0.00 0.00 94 1011.2
20260506095147 23 146 3.2 12.9 0.00 0.00 0.00 94 1010.8
20260506094646 23 163 4.8 11.3 0.00 0.00 0.00 94 1011.2
20260506094148 23 154 8.0 11.3 0.00 0.00 0.00 94 1011.2
20260506093648 23 168 9.7 12.9 0.00 0.00 0.00 94 1010.8
20260506093147 23 165 8.0 11.3 0.00 0.00 0.00 94 1011.2
20260506092648 23 138 4.8 9.7 0.00 0.00 0.00 94 1010.8
20260506092146 23 150 8.0 9.7 0.00 0.00 0.00 93 1011.2
20260506091647 23 126 9.7 11.3 0.00 0.00 0.00 93 1011.2
20260506091148 23 151 4.8 8.0 0.00 0.00 0.00 93 1011.2
20260506090647 23 139 4.8 11.3 0.00 0.00 0.00 93 1011.2
20260506090147 23 143 8.0 9.7 0.00 0.00 0.00 93 1011.2
20260506085649 23 162 9.7 11.3 0.00 0.00 0.00 93 1011.2
20260506085147 23 146 4.8 8.0 0.00 0.00 0.00 93 1011.2
20260506084646 23 141 3.2 9.7 0.00 0.00 0.00 92 1011.2
20260506084147 23 171 3.2 8.0 0.00 0.00 0.00 92 1011.2
20260506083647 23 158 6.4 9.7 0.00 0.00 0.00 92 1011.2
20260506083148 23 144 4.8 8.0 0.00 0.00 0.00 92 1011.2
20260506082647 23 156 4.8 8.0 0.00 0.00 0.00 92 1011.2
20260506082146 23 157 6.4 9.7 0.00 0.00 0.00 92 1010.8
20260506081649 23 156 6.4 9.7 0.00 0.00 0.00 92 1011.2
20260506081146 23 160 8.0 11.3 0.00 0.00 0.00 92 1011.2
20260506080647 23 156 8.0 12.9 0.00 0.00 0.00 92 1011.2
20260506080147 23 155 4.8 9.7 0.00 0.00 0.00 92 1010.8
20260506073147 22 144 4.8 14.5 0.00 0.00 0.00 92 1011.2
20260506072647 22 166 9.7 14.5 0.00 0.00 0.00 92 1011.2
20260506072147 22 154 8.0 9.7 0.00 0.00 0.00 93 1011.2
20260506071646 22 157 9.7 14.5 0.00 0.00 0.00 93 1011.2
20260506071147 22 172 9.7 11.3 0.00 0.00 0.00 94 1011.2
20260506070647 22 148 11.3 12.9 0.00 0.00 0.00 94 1011.2
20260506070152 22 134 4.8 9.7 0.00 0.00 0.00 94 1011.2